Location: Foothill Ranch
(33.6864°N, 117.6609°W)
Time: 12:01:04
(UTC+00:00)

Daily predictions for brighter satellites

Satellite Brightness Start Highest point End
(mag) Time Altitude Azimuth Time Altitude Azimuth Time Altitude Azimuth
SJ 16-02 4.3 12:00:20 10° SE 12:02:56 16° E 12:05:33 10° ENE
Cosmos 1697 Rocket 4.1 12:01:37 13° N 12:06:04 35° ENE 12:11:08 10° SE
Lacrosse 4 Rocket 2.0 12:12:13 53° ESE 12:12:13 53° ESE 12:15:45 10° SE
Lacrosse 5 2.0 12:14:23 63° N 12:14:23 63° N 12:18:46 10° NE
CZ-2C R/B 2.2 12:12:10 10° NNE 12:17:05 90° SW 12:17:56 61° SSW
Cosmos 1535 Rocket 4.3 12:12:45 10° SSW 12:18:59 68° W 12:25:09 10° N
Cosmos 2082 Rocket 2.1 12:16:11 23° SSW 12:19:52 89° ESE 12:25:37 10° NNE
Milstar 3 Cent rocket 4.1 12:21:53 28° SW 12:23:31 30° SW 12:29:12 10° SSE
Cosmos 839 Rocket 4.2 12:21:43 10° SSW 12:29:44 77° WNW 12:36:18 10° NNE
PAYLOAD A 4.2 12:27:45 10° N 12:32:54 51° WNW 12:33:25 49° W
SL-24 R/B 4.4 12:33:44 10° N 12:38:26 54° W 12:43:09 10° SSW
OAO 1 Rocket 4.4 12:42:00 43° WNW 12:43:47 88° N 12:49:10 10° E
Cosmos 1833 Rocket 3.2 12:45:03 35° WNW 12:45:03 35° WNW 12:50:04 10° N
COBE Rocket 4.1 12:45:02 10° SSE 12:50:12 78° ENE 12:55:21 10° N
Cosmos 1869 4.5 12:46:31 10° N 12:50:15 42° E 12:53:59 10° SSE
Cosmos 1656 3.7 12:48:20 30° NW 12:50:37 49° WSW 12:55:49 10° S
STARLINK-43 3.3 12:53:49 47° W 12:54:35 61° NW 12:58:17 10° NE
Cosmos 1484 Rocket 2.8 12:50:38 10° NNE 12:54:38 88° ESE 12:58:39 10° SSW
MOS 1-B 4.5 12:49:26 10° NNE 12:55:16 79° ESE 13:01:02 10° S
Meteor 2-2 Rocket 4.2 12:52:36 10° N 12:58:15 88° E 13:03:53 10° S
BREEZE-M DEB (TANK) 3.9 12:58:48 12° N 12:59:32 13° NNE 13:00:44 10° ENE
Cosmos 2100 Rocket 4.4 12:56:05 10° S 13:02:14 65° E 13:08:20 10° NNE
Meteor PRIRODA 3.8 12:58:54 10° N 13:02:27 47° WNW 13:05:57 10° SSW
Gbstr 26 Del rocket 2.9 13:01:24 34° W 13:02:37 47° NW 13:06:14 10° NE
Cosmos 990 Rocket 3.9 12:58:11 10° SSW 13:03:20 89° WNW 13:08:33 10° NNE
Cosmos 923 Rocket 3.9 12:59:25 10° NNW 13:04:40 88° WSW 13:09:54 10° SSE
Sakura Rocket 4.2 13:01:10 16° WSW 13:05:11 40° S 13:09:13 10° ESE
Okean 3 Rocket 4.0 13:03:26 10° S 13:07:55 66° E 13:12:25 10° NNE
Cosmos 1076 Rocket 3.7 13:04:08 10° SSW 13:08:19 46° W 13:12:31 10° N
Cosmos 1980 Rocket 2.6 13:03:08 10° NNW 13:08:48 66° ENE 13:14:25 10° SSE
Cosmos 1892 3.3 13:05:30 10° S 13:09:14 58° E 13:12:58 10° NNE
Chandra Rocket (1) 3.9 12:59:51 16° W 13:13:11 62° S 13:18:05 10° ESE
Helios 1A Rocket 3.3 13:09:31 10° NNE 13:13:36 68° ESE 13:17:38 10° S
OAO 2 Rocket 3.3 13:11:05 21° W 13:14:33 84° N 13:19:35 10° E
Cosmos 1447 Rocket 4.5 13:09:58 10° N 13:16:18 70° W 13:22:34 10° S
Shenzhou-11 Module 3.9 13:18:00 13° NNW 13:18:25 14° N 13:19:56 10° NNE
PSLV R/B 4.3 13:17:22 10° N 13:20:52 35° WNW 13:24:27 10° SW
ISS -3.8 13:19:11 19° NW 13:21:29 89° SW 13:24:50 10° SE
Cosmos 1766 Rocket 3.8 13:17:43 10° S 13:22:00 72° E 13:26:19 10° N
Cosmos 2369 4.1 13:16:36 10° NW 13:22:01 44° WSW 13:27:24 10° S
Cosmos 1898 Rocket 3.6 13:18:03 10° SSW 13:23:07 53° WNW 13:28:16 10° N
Cosmos 2058 3.3 13:19:47 10° SSW 13:23:44 40° W 13:27:43 10° N
Centaur D-1AR AC-39 4.1 13:21:30 10° SW 13:25:57 30° S 13:40:35 10° ESE
Cosmos 2221 3.5 13:22:26 10° NNW 13:26:06 26° W 13:29:45 10° SSW
COSMO-SKYMED 1 2.5 13:22:18 10° S 13:26:36 66° WSW 13:30:55 10° NNW
Milstar 3 4.4 13:23:14 10° WSW 13:28:53 21° SSW 13:33:49 10° SSE
Atlas Centaur 2 2.7 13:26:50 12° WSW 13:29:28 25° SSW 13:32:47 10° SE
ALOS 2.2 13:25:15 10° N 13:29:53 68° WNW 13:34:30 10° SSW
Cosmos 1408 3.5 13:27:43 10° S 13:31:20 52° E 13:34:55 10° NNE
Cosmos 2360 4.3 13:25:54 10° NNW 13:31:34 63° WSW 13:37:12 10° S
PAYLOAD B 4.2 13:28:08 10° N 13:33:34 61° WNW 13:38:57 10° SSW
CZ-3B R/B 4.0 13:31:07 10° WSW 13:35:25 42° S 13:49:22 10° ESE
STARLINK-61 4.2 13:31:42 10° SSW 13:35:39 60° SE 13:39:37 10° NE
CZ-4B R/B 3.1 13:31:57 10° N 13:37:19 77° WNW 13:42:47 10° SSW
Cosmos 1937 Rocket 3.6 13:34:49 10° SSW 13:39:50 52° WNW 13:44:51 10° N
SJ 16-02 1.9 13:37:10 10° SW 13:41:10 34° WNW 13:45:11 10° N
STARLINK-80 4.0 13:37:54 10° WSW 13:41:28 37° NW 13:45:04 10° NNE
Cosmos 1825 3.3 13:37:55 10° SSE 13:41:32 49° E 13:45:11 10° NNE
OAO 3 Rocket 3.2 13:37:33 10° W 13:42:22 87° NNW 13:47:06 10° E
Cosmos 2278 4.2 13:37:46 10° NW 13:43:04 40° WSW 13:48:20 10° S
Cosmos 2173 Rocket 4.1 13:37:40 10° SSW 13:43:54 61° W 13:50:05 10° N
NOAA 6 4.0 13:39:08 10° N 13:44:13 65° WNW 13:49:16 10° SSW
Okean O Rocket 1.7 13:41:19 10° N 13:45:31 50° WNW 13:49:42 10° SSW
Cosmos 1356 Rocket 4.1 13:43:10 10° NNW 13:47:05 35° W 13:50:58 10° SSW
STARLINK-48 3.9 13:45:25 10° WSW 13:49:08 42° NW 13:52:51 10° NNE
Cosmos 1697 Rocket 3.7 13:45:13 10° NW 13:49:47 26° WSW 13:54:20 10° SSW
STARLINK-71 4.4 13:48:35 10° SSW 13:52:38 56° SE 13:56:41 10° NE
FENGYUN 3A 4.0 13:51:02 10° N 13:56:07 43° WNW 14:01:10 10° SW
